When you browse on this site, cookies collect data to enhance your experience and personalize the content and advertising you see.
Visit our Privacy Policy to learn more. By continuing to use the site, you agree to this use of cookies and data.
  • In Österreich
  • Länderverzeichnis
  • Für 7 Tage
  • Wassertemperatur
  • Satellitenkarten
  • Wetterkarte
  • News
  • Widgets
  • user-avatar
    Anmelden

    Stündliche Wetter San Luis

    Heute, 21 Juli, Sonntag

    Zeit Temperatur Niederschläge Wind Luftdruck Luftfeuchtigkeit
    00:00 +13°C° 0 mm 8 m/S 685 mmHg 71%
    01:00 +15°C° 0 mm 9 m/S 685 mmHg 70%
    02:00 +16°C° 0 mm 9 m/S 685 mmHg 70%
    03:00 +16°C° 0 mm 9 m/S 685 mmHg 68%
    04:00 +16°C° 0 mm 8 m/S 685 mmHg 66%
    05:00 +16°C° 0 mm 7 m/S 685 mmHg 64%
    06:00 +14°C° 0 mm 6 m/S 685 mmHg 73%
    07:00 +13°C° 0 mm 4 m/S 686 mmHg 82%
    08:00 +11°C° 0 mm 3 m/S 687 mmHg 91%
    09:00 +12°C° 0 mm 5 m/S 688 mmHg 82%
    10:00 +11°C° 0 mm 7 m/S 689 mmHg 74%
    11:00 +12°C° 0 mm 9 m/S 690 mmHg 65%
    12:00 +12°C° 0 mm 9 m/S 691 mmHg 58%
    13:00 +12°C° 0 mm 10 m/S 691 mmHg 50%
    14:00 +11°C° 0 mm 10 m/S 691 mmHg 43%
    15:00 +11°C° 0 mm 10 m/S 691 mmHg 40%
    16:00 +9°C° 0 mm 10 m/S 692 mmHg 38%
    17:00 +9°C° 0 mm 10 m/S 692 mmHg 35%
    18:00 +8°C° 0 mm 10 m/S 693 mmHg 33%
    19:00 +7°C° 0 mm 9 m/S 694 mmHg 32%
    20:00 +7°C° 0 mm 8 m/S 694 mmHg 30%
    21:00 +7°C° 0 mm 8 m/S 695 mmHg 29%
    22:00 +6°C° 0 mm 8 m/S 696 mmHg 29%
    23:00 +6°C° 0 mm 8 m/S 697 mmHg 28%

    Morgen, 22 Juli, Montag

    Zeit Temperatur Niederschläge Wind Luftdruck Luftfeuchtigkeit
    00:00 +5°C° 0 mm 7 m/S 697 mmHg 29%
    01:00 +5°C° 0 mm 7 m/S 698 mmHg 30%
    02:00 +5°C° 0 mm 7 m/S 698 mmHg 32%
    03:00 +4°C° 0 mm 7 m/S 698 mmHg 31%
    04:00 +4°C° 0 mm 6 m/S 699 mmHg 31%
    05:00 +3°C° 0 mm 6 m/S 699 mmHg 31%
    06:00 +3°C° 0 mm 6 m/S 700 mmHg 31%
    07:00 +3°C° 0 mm 5 m/S 701 mmHg 32%
    08:00 +3°C° 0 mm 5 m/S 701 mmHg 32%
    09:00 +6°C° 0 mm 5 m/S 702 mmHg 29%
    10:00 +8°C° 0 mm 6 m/S 702 mmHg 26%
    11:00 +9°C° 0 mm 6 m/S 703 mmHg 22%
    12:00 +10°C° 0 mm 6 m/S 702 mmHg 21%
    13:00 +10°C° 0 mm 6 m/S 702 mmHg 20%
    14:00 +11°C° 0 mm 6 m/S 701 mmHg 18%
    15:00 +10°C° 0 mm 6 m/S 701 mmHg 19%
    16:00 +10°C° 0 mm 6 m/S 701 mmHg 20%
    17:00 +9°C° 0 mm 6 m/S 701 mmHg 21%
    18:00 +8°C° 0 mm 6 m/S 701 mmHg 24%
    19:00 +7°C° 0 mm 6 m/S 701 mmHg 27%
    20:00 +5°C° 0 mm 6 m/S 702 mmHg 31%
    21:00 +4°C° 0 mm 6 m/S 702 mmHg 32%
    22:00 +4°C° 0 mm 6 m/S 702 mmHg 34%
    23:00 +4°C° 0 mm 6 m/S 703 mmHg 36%

    übermorgen, 23 Juli, Dienstag

    Zeit Temperatur Niederschläge Wind Luftdruck Luftfeuchtigkeit
    00:00 +3°C° 0 mm 6 m/S 703 mmHg 37%
    01:00 +3°C° 0 mm 5 m/S 703 mmHg 38%
    02:00 +3°C° 0 mm 5 m/S 703 mmHg 39%
    03:00 +3°C° 0 mm 4 m/S 703 mmHg 40%
    04:00 +3°C° 0 mm 4 m/S 703 mmHg 41%
    05:00 +2°C° 0 mm 3 m/S 703 mmHg 42%
    06:00 +3°C° 0 mm 3 m/S 703 mmHg 42%
    07:00 +3°C° 0 mm 3 m/S 704 mmHg 43%
    08:00 +4°C° 0 mm 2 m/S 704 mmHg 43%
    09:00 +6°C° 0 mm 2 m/S 705 mmHg 37%
    10:00 +8°C° 0 mm 2 m/S 705 mmHg 31%
    11:00 +10°C° 0 mm 2 m/S 705 mmHg 26%
    12:00 +12°C° 0 mm 2 m/S 705 mmHg 24%
    13:00 +13°C° 0 mm 2 m/S 705 mmHg 23%
    14:00 +13°C° 0 mm 2 m/S 704 mmHg 22%
    15:00 +13°C° 0 mm 2 m/S 704 mmHg 22%
    16:00 +13°C° 0 mm 2 m/S 704 mmHg 23%
    17:00 +13°C° 0 mm 2 m/S 704 mmHg 24%
    18:00 +10°C° 0 mm 2 m/S 704 mmHg 27%
    19:00 +8°C° 0 mm 2 m/S 704 mmHg 30%
    20:00 +5°C° 0 mm 3 m/S 705 mmHg 32%
    21:00 +6°C° 0 mm 2 m/S 705 mmHg 33%
    22:00 +6°C° 0 mm 2 m/S 705 mmHg 34%
    23:00 +5°C° 0 mm 2 m/S 705 mmHg 35%

    24 Juli, Mittwoch

    Zeit Temperatur Niederschläge Wind Luftdruck Luftfeuchtigkeit
    00:00 +6°C° 0 mm 1 m/S 705 mmHg 36%
    01:00 +5°C° 0 mm 1 m/S 705 mmHg 37%
    02:00 +5°C° 0 mm 1 m/S 705 mmHg 38%
    03:00 +4°C° 0 mm 1 m/S 706 mmHg 39%
    04:00 +4°C° 0 mm 1 m/S 706 mmHg 40%
    05:00 +3°C° 0 mm 1 m/S 706 mmHg 41%
    06:00 +4°C° 0 mm 1 m/S 706 mmHg 42%
    07:00 +4°C° 0 mm 1 m/S 706 mmHg 42%
    08:00 +3°C° 0 mm 0 m/S 707 mmHg 43%
    09:00 +7°C° 0 mm 1 m/S 708 mmHg 37%
    10:00 +9°C° 0 mm 1 m/S 708 mmHg 31%
    11:00 +12°C° 0 mm 2 m/S 709 mmHg 24%
    12:00 +12°C° 0 mm 2 m/S 709 mmHg 23%
    13:00 +13°C° 0 mm 2 m/S 708 mmHg 22%
    14:00 +14°C° 0 mm 2 m/S 708 mmHg 20%
    15:00 +13°C° 0 mm 2 m/S 707 mmHg 22%
    16:00 +13°C° 0 mm 1 m/S 707 mmHg 23%
    17:00 +13°C° 0 mm 1 m/S 707 mmHg 25%
    18:00 +11°C° 0 mm 1 m/S 707 mmHg 27%
    19:00 +9°C° 0 mm 1 m/S 707 mmHg 30%
    20:00 +7°C° 0 mm 1 m/S 707 mmHg 33%
    21:00 +7°C° 0 mm 1 m/S 707 mmHg 33%
    22:00 +6°C° 0 mm 2 m/S 707 mmHg 34%
    23:00 +6°C° 0 mm 2 m/S 707 mmHg 35%

    25 Juli, Donnerstag

    Zeit Temperatur Niederschläge Wind Luftdruck Luftfeuchtigkeit
    00:00 +6°C° 0 mm 2 m/S 707 mmHg 35%
    01:00 +4°C° 0 mm 3 m/S 706 mmHg 35%
    02:00 +4°C° 0 mm 3 m/S 706 mmHg 34%
    03:00 +4°C° 0 mm 4 m/S 706 mmHg 35%
    04:00 +4°C° 0 mm 4 m/S 706 mmHg 36%
    05:00 +3°C° 0 mm 5 m/S 706 mmHg 38%
    06:00 +4°C° 0 mm 4 m/S 706 mmHg 38%
    07:00 +4°C° 0 mm 4 m/S 706 mmHg 39%
    08:00 +4°C° 0 mm 4 m/S 706 mmHg 40%
    09:00 +6°C° 0 mm 4 m/S 706 mmHg 35%
    10:00 +9°C° 0 mm 5 m/S 706 mmHg 29%
    11:00 +12°C° 0 mm 5 m/S 706 mmHg 23%
    12:00 +13°C° 0 mm 5 m/S 706 mmHg 22%
    13:00 +14°C° 0 mm 5 m/S 705 mmHg 21%
    14:00 +15°C° 0 mm 5 m/S 704 mmHg 20%
    15:00 +14°C° 0 mm 5 m/S 704 mmHg 21%
    16:00 +13°C° 0 mm 5 m/S 703 mmHg 23%
    17:00 +13°C° 0 mm 5 m/S 703 mmHg 24%
    18:00 +11°C° 0 mm 4 m/S 703 mmHg 27%
    19:00 +10°C° 0 mm 4 m/S 703 mmHg 31%
    20:00 +7°C° 0 mm 4 m/S 703 mmHg 34%
    21:00 +7°C° 0 mm 4 m/S 703 mmHg 35%
    22:00 +6°C° 0 mm 4 m/S 703 mmHg 35%
    23:00 +6°C° 0 mm 4 m/S 703 mmHg 36%

    26 Juli, Freitag

    Zeit Temperatur Niederschläge Wind Luftdruck Luftfeuchtigkeit
    00:00 +6°C° 0 mm 4 m/S 703 mmHg 37%
    01:00 +5°C° 0 mm 5 m/S 703 mmHg 38%
    02:00 +5°C° 0 mm 5 m/S 703 mmHg 39%
    03:00 +4°C° 0 mm 4 m/S 703 mmHg 41%
    04:00 +4°C° 0 mm 3 m/S 702 mmHg 42%
    05:00 +3°C° 0 mm 3 m/S 702 mmHg 43%
    06:00 +3°C° 0 mm 3 m/S 702 mmHg 44%
    07:00 +4°C° 0 mm 3 m/S 703 mmHg 44%
    08:00 +4°C° 0 mm 3 m/S 703 mmHg 45%
    09:00 +7°C° 0 mm 3 m/S 703 mmHg 39%
    10:00 +8°C° 0 mm 4 m/S 704 mmHg 33%
    11:00 +11°C° 0 mm 4 m/S 704 mmHg 28%
    12:00 +12°C° 0 mm 4 m/S 704 mmHg 27%
    13:00 +13°C° 0 mm 4 m/S 703 mmHg 25%
    14:00 +14°C° 0 mm 4 m/S 703 mmHg 24%
    15:00 +13°C° 0 mm 4 m/S 702 mmHg 26%
    16:00 +12°C° 0 mm 4 m/S 702 mmHg 28%
    17:00 +12°C° 0 mm 3 m/S 702 mmHg 30%
    18:00 +10°C° 0 mm 2 m/S 702 mmHg 34%
    19:00 +8°C° 0 mm 2 m/S 702 mmHg 38%
    20:00 +7°C° 0 mm 1 m/S 703 mmHg 43%
    21:00 +7°C° 0 mm 1 m/S 703 mmHg 43%
    22:00 +7°C° 0 mm 1 m/S 703 mmHg 43%
    23:00 +7°C° 0 mm 1 m/S 704 mmHg 44%
    Mehr zeigen